Location: Dillon
(41.1766°N, 107.0923°W)
Time: 20:57:14
(UTC+00:00)

ISS - Visible Passes

Search period start: 28 May 2023 00:00
Search period end: 07 June 2023 00:00
Orbit: 412 x 419 km, 51.6° (Epoch: 28 May)

Date Brightness Start Highest point End Pass type
(mag) Time Alt. Az. Time Alt. Az. Time Alt. Az.
28 May -3.0 03:45:27 10° NW 03:48:41 45° NNE 03:50:53 18° E visible
28 May -1.4 05:22:34 10° W 05:23:46 17° W 05:23:46 17° W visible
29 May -2.3 02:56:58 10° NW 02:59:59 30° NNE 03:03:00 10° E visible
29 May -3.0 04:33:37 10° WNW 04:36:46 38° SW 04:36:58 38° SSW visible
30 May -3.7 03:44:52 10° WNW 03:48:13 70° SW 03:50:11 22° SE visible
31 May -1.4 04:34:06 10° W 04:35:56 14° SW 04:36:20 14° SW visible
01 Jun -2.0 03:44:40 10° WNW 03:47:26 24° SW 03:49:37 13° S visible
